Time,TemperatureF,DewpointF,PressureIn,WindDirection,WindDirectionDegrees,WindSpeedMPH,WindSpeedGustMPH,Humidity,HourlyPrecipIn,Conditions,Clouds,dailyrainin,SoftwareType,DateUTC
2013-07-19 00:13:00,82.0,81.4,29.89,SSW,202,0.0,-999.0,98,-99.99,,,0.00,Acu-Link.com,2013-07-19 04:13:00,
2013-07-19 00:28:00,81.9,81.2,29.90,West,270,0.0,-999.0,98,-99.99,,,0.00,Acu-Link.com,2013-07-19 04:28:00,
2013-07-19 00:43:00,81.7,81.1,29.90,NE,45,0.0,-999.0,98,-99.99,,,0.00,Acu-Link.com,2013-07-19 04:43:00,
2013-07-19 00:58:00,81.7,81.1,29.90,SSW,202,0.0,-999.0,98,-99.99,,,0.00,Acu-Link.com,2013-07-19 04:58:00,
2013-07-19 01:13:00,81.3,80.7,29.91,WSW,247,0.0,-999.0,98,-99.99,,,0.00,Acu-Link.com,2013-07-19 05:13:00,
2013-07-19 01:29:00,81.3,80.7,29.90,SSW,202,0.0,-999.0,98,-99.99,,,0.00,Acu-Link.com,2013-07-19 05:29:00,
2013-07-19 01:44:00,81.1,80.5,29.90,SW,225,0.0,-999.0,98,-99.99,,,0.00,Acu-Link.com,2013-07-19 05:44:00,
2013-07-19 01:59:00,80.8,80.2,29.90,SW,225,0.0,-999.0,98,-99.99,,,0.00,Acu-Link.com,2013-07-19 05:59:00,
2013-07-19 02:14:00,80.4,79.8,29.90,SW,225,0.0,-999.0,98,-99.99,,,0.00,Acu-Link.com,2013-07-19 06:14:00,
2013-07-19 02:30:00,80.4,79.8,29.90,SSW,202,0.0,-999.0,98,-99.99,,,0.00,Acu-Link.com,2013-07-19 06:30:00,
2013-07-19 02:45:00,79.9,79.3,29.90,SW,225,0.0,-999.0,98,-99.99,,,0.00,Acu-Link.com,2013-07-19 06:45:00,
2013-07-19 03:00:00,79.7,79.1,29.89,SW,225,0.0,-999.0,98,-99.99,,,0.00,Acu-Link.com,2013-07-19 07:00:00,
2013-07-19 03:15:00,79.5,78.9,29.89,SW,225,0.0,-999.0,98,-99.99,,,0.00,Acu-Link.com,2013-07-19 07:15:00,
2013-07-19 03:30:00,79.5,78.9,29.89,SW,225,0.0,-999.0,98,-99.99,,,0.00,Acu-Link.com,2013-07-19 07:30:00,
2013-07-19 03:46:00,79.7,79.1,29.89,SW,225,0.0,-999.0,98,-99.99,,,0.00,Acu-Link.com,2013-07-19 07:46:00,
2013-07-19 04:01:00,80.2,79.6,29.88,SSW,202,0.0,-999.0,98,-99.99,,,0.00,Acu-Link.com,2013-07-19 08:01:00,
2013-07-19 04:16:00,79.9,79.3,29.88,West,270,0.0,-999.0,98,-99.99,,,0.00,Acu-Link.com,2013-07-19 08:16:00,
2013-07-19 04:31:00,80.1,79.4,29.88,SSE,157,0.0,-999.0,98,-99.99,,,0.00,Acu-Link.com,2013-07-19 08:31:00,
2013-07-19 04:46:00,79.5,78.9,29.88,North,0,0.0,-999.0,98,-99.99,,,0.00,Acu-Link.com,2013-07-19 08:46:00,
2013-07-19 05:01:00,79.3,78.7,29.88,West,270,0.0,-999.0,98,-99.99,,,0.00,Acu-Link.com,2013-07-19 09:01:00,
2013-07-19 05:16:00,79.0,78.4,29.88,WNW,292,0.0,-999.0,98,-99.99,,,0.00,Acu-Link.com,2013-07-19 09:16:00,
2013-07-19 05:31:00,78.8,78.2,29.88,West,270,0.0,-999.0,98,-99.99,,,0.00,Acu-Link.com,2013-07-19 09:31:00,
2013-07-19 05:47:00,78.6,78.0,29.88,SW,225,0.0,-999.0,98,-99.99,,,0.00,Acu-Link.com,2013-07-19 09:47:00,
2013-07-19 06:02:00,78.8,78.2,29.88,SW,225,0.0,-999.0,98,-99.99,,,0.00,Acu-Link.com,2013-07-19 10:02:00,
2013-07-19 06:17:00,78.8,78.2,29.87,West,270,0.0,-999.0,98,-99.99,,,0.00,Acu-Link.com,2013-07-19 10:17:00,
2013-07-19 06:32:00,78.8,78.2,29.87,SW,225,0.0,-999.0,98,-99.99,,,0.00,Acu-Link.com,2013-07-19 10:32:00,
2013-07-19 06:47:00,79.3,78.7,29.87,SW,225,0.0,-999.0,98,-99.99,,,0.00,Acu-Link.com,2013-07-19 10:47:00,
2013-07-19 07:02:00,79.5,78.9,29.88,SW,225,0.0,-999.0,98,-99.99,,,0.00,Acu-Link.com,2013-07-19 11:02:00,
2013-07-19 07:18:00,80.2,79.6,29.88,WSW,247,0.0,-999.0,98,-99.99,,,0.00,Acu-Link.com,2013-07-19 11:18:00,
2013-07-19 07:33:00,81.0,80.3,29.88,SSW,202,0.0,-999.0,98,-99.99,,,0.00,Acu-Link.com,2013-07-19 11:33:00,
2013-07-19 07:48:00,81.7,81.1,29.88,North,0,0.0,-999.0,98,-99.99,,,0.00,Acu-Link.com,2013-07-19 11:48:00,
2013-07-19 08:03:00,83.1,82.5,29.88,SW,225,0.0,-999.0,98,-99.99,,,0.00,Acu-Link.com,2013-07-19 12:03:00,
2013-07-19 08:18:00,84.2,83.6,29.89,WSW,247,0.0,-999.0,98,-99.99,,,0.00,Acu-Link.com,2013-07-19 12:18:00,
2013-07-19 08:19:00,84.2,83.6,29.89,WSW,247,0.0,-999.0,98,-99.99,,,0.00,Acu-Link.com,2013-07-19 12:19:00,
2013-07-19 08:34:00,85.1,84.5,29.89,SSW,202,0.0,-999.0,98,-99.99,,,0.00,Acu-Link.com,2013-07-19 12:34:00,
2013-07-19 08:49:00,86.2,85.5,29.88,SSE,157,0.0,-999.0,98,-99.99,,,0.00,Acu-Link.com,2013-07-19 12:49:00,
2013-07-19 09:04:00,86.9,86.3,29.89,West,270,2.2,-999.0,98,-99.99,,,0.00,Acu-Link.com,2013-07-19 13:04:00,
2013-07-19 09:19:00,88.0,87.3,29.88,West,270,0.0,-999.0,98,-99.99,,,0.00,Acu-Link.com,2013-07-19 13:19:00,
2013-07-19 09:35:00,88.5,87.9,29.88,East,90,0.0,-999.0,98,-99.99,,,0.00,Acu-Link.com,2013-07-19 13:35:00,
2013-07-19 09:50:00,89.2,88.6,29.88,NNW,337,2.2,-999.0,98,-99.99,,,0.00,Acu-Link.com,2013-07-19 13:50:00,
2013-07-19 10:05:00,89.6,89.0,29.87,WSW,247,2.7,-999.0,98,-99.99,,,0.00,Acu-Link.com,2013-07-19 14:05:00,
2013-07-19 10:20:00,90.7,90.0,29.87,WSW,247,0.0,-999.0,98,-99.99,,,0.00,Acu-Link.com,2013-07-19 14:20:00,
2013-07-19 10:35:00,91.6,90.9,29.87,NNE,22,0.0,-999.0,98,-99.99,,,0.00,Acu-Link.com,2013-07-19 14:35:00,
2013-07-19 10:51:00,91.9,91.3,29.86,West,270,0.0,-999.0,98,-99.99,,,0.00,Acu-Link.com,2013-07-19 14:51:00,
2013-07-19 11:06:00,92.1,91.5,29.86,NNW,337,0.0,-999.0,98,-99.99,,,0.00,Acu-Link.com,2013-07-19 15:06:00,
2013-07-19 11:21:00,93.2,92.5,29.86,SSE,157,0.0,-999.0,98,-99.99,,,0.00,Acu-Link.com,2013-07-19 15:21:00,
2013-07-19 11:36:00,94.1,93.4,29.85,West,270,0.0,-999.0,98,-99.99,,,0.00,Acu-Link.com,2013-07-19 15:36:00,
2013-07-19 11:52:00,94.6,94.0,29.85,North,0,0.0,-999.0,98,-99.99,,,0.00,Acu-Link.com,2013-07-19 15:52:00,
2013-07-19 12:07:00,95.2,94.5,29.83,WNW,292,0.0,-999.0,98,-99.99,,,0.00,Acu-Link.com,2013-07-19 16:07:00,
2013-07-19 12:22:00,94.6,94.0,29.83,WNW,292,0.0,-999.0,98,-99.99,,,0.00,Acu-Link.com,2013-07-19 16:22:00,
2013-07-19 12:37:00,96.8,96.1,29.83,ENE,67,3.1,-999.0,98,-99.99,,,0.00,Acu-Link.com,2013-07-19 16:37:00,
2013-07-19 12:52:00,97.0,96.3,29.82,West,270,0.0,-999.0,98,-99.99,,,0.00,Acu-Link.com,2013-07-19 16:52:00,
2013-07-19 13:08:00,96.8,96.1,29.82,South,180,2.2,-999.0,98,-99.99,,,0.00,Acu-Link.com,2013-07-19 17:08:00,
2013-07-19 13:23:00,96.3,95.6,29.81,WSW,247,3.8,-999.0,98,-99.99,,,0.00,Acu-Link.com,2013-07-19 17:23:00,
2013-07-19 13:38:00,96.8,96.1,29.81,WNW,292,2.7,-999.0,98,-99.99,,,0.00,Acu-Link.com,2013-07-19 17:38:00,
2013-07-19 13:53:00,96.3,95.6,29.80,WSW,247,2.7,-999.0,98,-99.99,,,0.00,Acu-Link.com,2013-07-19 17:53:00,
2013-07-19 14:08:00,96.1,95.4,29.79,SSW,202,2.7,-999.0,98,-99.99,,,0.00,Acu-Link.com,2013-07-19 18:08:00,
2013-07-19 14:24:00,95.5,94.9,29.79,South,180,4.3,-999.0,98,-99.99,,,0.00,Acu-Link.com,2013-07-19 18:24:00,
2013-07-19 14:39:00,97.2,96.5,29.79,ESE,112,0.0,-999.0,98,-99.99,,,0.00,Acu-Link.com,2013-07-19 18:39:00,
2013-07-19 14:54:00,96.3,95.6,29.78,South,180,2.2,-999.0,98,-99.99,,,0.00,Acu-Link.com,2013-07-19 18:54:00,
2013-07-19 15:09:00,96.4,95.8,29.77,North,0,4.3,-999.0,98,-99.99,,,0.00,Acu-Link.com,2013-07-19 19:09:00,
2013-07-19 15:24:00,96.6,96.0,29.76,West,270,3.8,-999.0,98,-99.99,,,0.00,Acu-Link.com,2013-07-19 19:24:00,
2013-07-19 15:40:00,96.4,95.8,29.76,West,270,4.3,-999.0,98,-99.99,,,0.00,Acu-Link.com,2013-07-19 19:40:00,
2013-07-19 15:55:00,96.1,95.4,29.75,West,270,3.8,-999.0,98,-99.99,,,0.00,Acu-Link.com,2013-07-19 19:55:00,
2013-07-19 16:10:00,96.1,95.4,29.75,West,270,0.0,-999.0,98,-99.99,,,0.00,Acu-Link.com,2013-07-19 20:10:00,
2013-07-19 16:25:00,96.3,95.6,29.74,NW,315,3.1,-999.0,98,-99.99,,,0.00,Acu-Link.com,2013-07-19 20:25:00,
2013-07-19 16:41:00,95.7,95.1,29.73,WNW,292,4.7,-999.0,98,-99.99,,,0.00,Acu-Link.com,2013-07-19 20:41:00,
2013-07-19 16:56:00,95.7,95.1,29.73,SE,135,2.2,-999.0,98,-99.99,,,0.00,Acu-Link.com,2013-07-19 20:56:00,
2013-07-19 17:11:00,95.4,94.7,29.73,WSW,247,2.7,-999.0,98,-99.99,,,0.00,Acu-Link.com,2013-07-19 21:11:00,
2013-07-19 17:26:00,95.2,94.5,29.72,WNW,292,3.8,-999.0,98,-99.99,,,0.00,Acu-Link.com,2013-07-19 21:26:00,
2013-07-19 17:41:00,95.4,94.7,29.71,WNW,292,5.1,-999.0,98,-99.99,,,0.00,Acu-Link.com,2013-07-19 21:41:00,
2013-07-19 17:57:00,95.0,94.3,29.71,West,270,1.6,-999.0,98,-99.99,,,0.00,Acu-Link.com,2013-07-19 21:57:00,
2013-07-19 18:12:00,94.6,94.0,29.71,WNW,292,6.3,-999.0,98,-99.99,,,0.00,Acu-Link.com,2013-07-19 22:12:00,
2013-07-19 18:27:00,94.6,94.0,29.72,NW,315,3.1,-999.0,98,-99.99,,,0.00,Acu-Link.com,2013-07-19 22:27:00,
2013-07-19 18:42:00,93.7,93.1,29.72,SSW,202,0.0,-999.0,98,-99.99,,,0.00,Acu-Link.com,2013-07-19 22:42:00,
2013-07-19 18:58:00,93.6,92.9,29.72,NNE,22,2.7,-999.0,98,-99.99,,,0.00,Acu-Link.com,2013-07-19 22:58:00,
2013-07-19 19:13:00,93.0,92.4,29.72,West,270,2.2,-999.0,98,-99.99,,,0.00,Acu-Link.com,2013-07-19 23:13:00,
2013-07-19 19:28:00,92.8,92.2,29.72,West,270,3.1,-999.0,98,-99.99,,,0.00,Acu-Link.com,2013-07-19 23:28:00,
2013-07-19 19:43:00,92.7,92.0,29.73,WSW,247,1.1,-999.0,98,-99.99,,,0.00,Acu-Link.com,2013-07-19 23:43:00,
2013-07-19 19:58:00,92.1,91.5,29.73,NW,315,2.7,-999.0,98,-99.99,,,0.00,Acu-Link.com,2013-07-19 23:58:00,
2013-07-19 20:14:00,91.4,90.8,29.73,SW,225,0.0,-999.0,98,-99.99,,,0.00,Acu-Link.com,2013-07-20 00:14:00,
2013-07-19 20:29:00,91.2,90.6,29.74,ESE,112,0.0,-999.0,98,-99.99,,,0.00,Acu-Link.com,2013-07-20 00:29:00,
2013-07-19 20:44:00,90.9,90.2,29.74,East,90,0.0,-999.0,98,-99.99,,,0.00,Acu-Link.com,2013-07-20 00:44:00,
2013-07-19 20:59:00,90.5,89.9,29.76,WNW,292,0.0,-999.0,98,-99.99,,,0.00,Acu-Link.com,2013-07-20 00:59:00,
2013-07-19 21:14:00,90.5,89.9,29.75,South,180,1.6,-999.0,98,-99.99,,,0.00,Acu-Link.com,2013-07-20 01:14:00,
2013-07-19 21:30:00,90.1,89.5,29.75,West,270,1.1,-999.0,98,-99.99,,,0.00,Acu-Link.com,2013-07-20 01:30:00,
2013-07-19 21:45:00,90.0,89.3,29.76,West,270,0.0,-999.0,98,-99.99,,,0.00,Acu-Link.com,2013-07-20 01:45:00,
2013-07-19 22:00:00,89.8,89.1,29.75,West,270,3.8,-999.0,98,-99.99,,,0.00,Acu-Link.com,2013-07-20 02:00:00,
2013-07-19 22:15:00,89.4,88.8,29.75,West,270,3.1,-999.0,98,-99.99,,,0.00,Acu-Link.com,2013-07-20 02:15:00,
2013-07-19 22:30:00,89.2,88.6,29.74,WNW,292,4.7,-999.0,98,-99.99,,,0.00,Acu-Link.com,2013-07-20 02:30:00,
2013-07-19 22:46:00,88.9,88.2,29.74,WSW,247,0.0,-999.0,98,-99.99,,,0.00,Acu-Link.com,2013-07-20 02:46:00,
2013-07-19 23:01:00,88.3,87.7,29.73,West,270,0.0,-999.0,98,-99.99,,,0.00,Acu-Link.com,2013-07-20 03:01:00,
2013-07-19 23:16:00,88.2,87.5,29.72,NW,315,0.0,-999.0,98,-99.99,,,0.00,Acu-Link.com,2013-07-20 03:16:00,
2013-07-19 23:31:00,87.8,87.2,29.72,North,0,0.0,-999.0,98,-99.99,,,0.00,Acu-Link.com,2013-07-20 03:31:00,
2013-07-19 23:47:00,87.6,87.0,29.72,NE,45,1.6,-999.0,98,-99.99,,,0.00,Acu-Link.com,2013-07-20 03:47:00,